This is the latest recevied weather packets stored in our database for station/object KQ7A. If no packets are shown the sender has not sent any weather packets the latest 10 day(s).
| Time | Temp. | Humidity | Pressure | Rain* | Wind** | Luminosity | Snow |
|---|---|---|---|---|---|---|---|
| 1778093805 | 20.56° C | 44% | 1022.4 hPa | 0 mm | - | 839 W/m² | - |
| 1778093501 | 20.56° C | 42% | 1022.7 hPa | 0 mm | - | 849 W/m² | - |
| 1778093199 | 20° C | 40% | 1022.7 hPa | 0 mm | - | 851 W/m² | - |
| 1778092896 | 20° C | 40% | 1022.6 hPa | 0 mm | - | 860 W/m² | - |
| 1778092592 | 20° C | 47% | 1022.8 hPa | 0 mm | - | 870 W/m² | - |
| 1778092288 | 20° C | 46% | 1022.8 hPa | 0 mm | - | 874 W/m² | - |
| 1778091986 | 20° C | 45% | 1022.9 hPa | 0 mm | - | 884 W/m² | - |
| 1778091683 | 20° C | 45% | 1022.7 hPa | 0 mm | - | 888 W/m² | - |
| 1778091381 | 19.44° C | 54% | 1022.8 hPa | 0 mm | - | 902 W/m² | - |
| 1778091078 | 19.44° C | 46% | 1022.6 hPa | 0 mm | - | 914 W/m² | - |
| 1778090775 | 19.44° C | 47% | 1022.7 hPa | 0 mm | - | 928 W/m² | - |
| 1778090471 | 18.89° C | 48% | 1022.7 hPa | 0 mm | - | 942 W/m² | - |
| 1778090167 | 18.89° C | 50% | 1022.9 hPa | 0 mm | - | 928 W/m² | - |
| 1778089863 | 18.89° C | 49% | 1022.9 hPa | 0 mm | - | 917 W/m² | - |
| 1778089562 | 18.89° C | 46% | 1022.8 hPa | 0 mm | - | 891 W/m² | - |
| 1778089258 | 18.89° C | 52% | 1022.7 hPa | 0 mm | - | 901 W/m² | - |
| 1778088956 | 18.89° C | 47% | 1022.9 hPa | 0 mm | - | 874 W/m² | - |
| 1778088653 | 18.33° C | 48% | 1022.4 hPa | 0 mm | - | 872 W/m² | - |
| 1778088350 | 18.33° C | 45% | 1022.6 hPa | 0 mm | - | 861 W/m² | - |
| 1778088046 | 18.33° C | 46% | 1022.4 hPa | 0 mm | - | 868 W/m² | - |
| 1778087743 | 17.78° C | 62% | 1022.9 hPa | 0 mm | - | 832 W/m² | - |
| 1778087440 | 17.78° C | 54% | 1022.6 hPa | 0 mm | - | 807 W/m² | - |
| 1778087138 | 17.78° C | 49% | 1022.4 hPa | 0 mm | - | 774 W/m² | - |
| 1778086830 | 17.78° C | 54% | 1022.8 hPa | 0 mm | - | 731 W/m² | - |
| 1778086528 | 17.78° C | 60% | 1022.3 hPa | 0 mm | - | 702 W/m² | - |
* Rain latest hour (hover to see other rain measurements)
** Current wind speed in m/s (hover to see current wind gust speed)